Theta_e
349 348 347 345 345 345 349 351 350 351 350 349 350 349 349 349 349 348 348 348 347 346 343 344 344 344 345 347 345 344 344 344 344 345 346 346 345 346 345 346 345 346 346 346 346 347 347 347 347 346 346 347 347 343 340 339 339 340 340 339 338 338
349 349 347 346 346 347 349 350 345 346 347 347 349 348 348 345 348 345 348 347 344 346 340 339 342 345 346 346 345 344 345 344 343 344 345 345 346 345 345 344 345 345 345 345 345 341 339 342 344 345 346 346 341 337 337 337 337 338 339 338 339 337
347 349 348 347 346 346 346 345 344 343 347 349 348 348 344 347 341 342 344 344 345 343 339 342 343 346 348 346 346 346 345 345 345 345 345 345 345 345 345 345 345 345 346 346 343 338 338 338 338 342 342 338 336 336 335 335 336 337 337 337 340 339
347 348 348 348 347 345 345 344 343 342 343 343 344 346 341 341 341 341 341 342 342 343 342 339 348 347 347 347 345 348 347 346 346 345 346 346 347 347 346 346 346 346 345 341 339 339 339 338 338 338 337 337 336 335 334 334 335 335 336 335 337 340
347 348 347 347 347 347 346 343 342 342 341 341 341 340 341 340 340 340 340 342 340 344 341 339 340 342 343 343 341 341 342 342 344 339 348 338 338 338 339 337 338 339 337 338 338 338 338 338 338 338 337 337 335 334 333 334 334 334 334 334 335 339
347 347 346 346 347 348 347 344 343 343 342 340 340 340 340 340 339 340 339 342 344 341 340 340 340 340 342 339 340 340 339 338 340 341 343 339 338 338 337 337 337 337 338 338 337 338 338 340 338 338 336 335 335 335 334 334 333 333 333 332 332 337
346 346 346 347 347 346 345 346 345 344 343 342 341 340 340 339 340 339 339 343 342 339 339 339 339 338 339 338 338 338 338 338 338 337 340 340 339 338 338 338 337 337 337 337 337 337 337 337 337 335 335 336 337 336 335 334 333 333 333 332 333 336
346 346 346 346 346 345 344 346 344 346 345 345 343 341 340 340 341 341 342 341 346 340 339 339 339 339 339 336 338 338 337 337 337 337 339 340 339 338 338 337 337 337 337 338 337 337 336 336 335 336 337 337 337 337 337 335 334 335 334 333 333 336
346 346 346 347 345 345 345 345 345 345 344 348 343 342 341 341 341 341 343 343 345 341 339 339 339 339 337 337 336 337 336 336 336 336 337 337 338 338 338 337 338 338 337 336 336 336 337 339 339 338 337 337 337 338 338 336 335 336 337 336 336 338
344 345 346 346 345 344 345 344 344 345 344 347 343 342 342 341 341 341 341 343 343 343 340 340 339 339 338 337 336 335 336 335 336 335 337 336 337 338 337 337 336 337 337 336 336 337 342 339 337 337 337 339 339 339 339 336 336 337 337 336 336 340
343 346 345 345 345 345 345 344 343 344 343 345 344 344 343 342 341 342 342 342 343 344 342 340 340 339 338 337 336 335 335 335 335 335 336 337 336 337 336 336 335 336 337 336 337 337 338 337 336 336 338 338 339 340 339 338 338 337 336 337 335 337
342 345 345 345 346 345 344 344 342 342 342 343 345 343 342 342 344 342 343 342 342 342 345 341 340 339 338 337 336 335 335 334 336 336 336 336 335 337 338 336 338 338 337 336 336 336 336 336 336 336 337 338 339 338 338 338 338 337 336 337 337 335
342 344 344 344 345 345 344 343 342 341 343 344 344 343 342 342 342 342 343 343 342 342 344 342 340 340 342 337 336 335 334 336 336 336 336 337 337 336 335 335 335 339 336 337 337 337 338 337 336 337 336 337 337 336 337 337 338 337 337 337 337 336
341 343 343 343 344 343 343 341 343 341 345 344 343 343 344 342 343 343 343 342 342 342 343 342 340 339 339 337 335 335 335 335 336 337 337 337 336 334 334 334 335 335 338 337 335 336 337 336 336 336 335 335 335 336 336 336 337 337 337 337 337 336
342 341 344 342 344 342 342 342 341 341 342 343 343 343 343 342 341 342 342 341 342 342 344 341 340 339 338 337 336 335 335 336 337 339 337 337 336 334 334 334 335 335 334 335 334 336 335 333 333 333 334 335 334 335 335 335 336 336 337 337 337 337
341 341 342 342 342 342 342 341 341 343 341 342 343 342 342 342 342 342 343 341 341 342 344 341 340 339 338 337 337 336 337 338 338 339 338 337 337 335 333 334 335 335 334 334 334 333 333 332 332 332 333 334 334 335 335 335 335 335 336 337 337 336
339 340 341 341 341 341 340 340 340 341 340 341 341 342 341 341 341 341 341 341 341 343 344 341 341 340 339 338 337 337 338 338 339 338 337 335 337 338 335 336 333 335 333 332 332 332 333 332 331 332 332 333 333 334 334 334 334 335 336 336 336 336
340 340 341 341 341 340 340 340 340 340 344 340 341 341 341 341 340 340 340 341 341 343 344 341 341 340 339 339 338 337 336 337 338 337 336 335 335 336 335 334 335 334 334 333 333 332 332 332 332 332 332 332 333 333 333 334 334 336 335 335 336 336
340 340 340 341 341 340 339 339 338 339 340 339 339 340 340 340 340 340 340 341 341 343 345 341 341 341 338 340 336 334 334 336 337 335 335 335 336 337 338 335 336 335 335 334 334 333 332 332 332 332 331 332 332 332 333 333 335 334 334 334 335 336
340 340 340 340 340 338 338 338 337 336 337 339 338 339 339 340 339 340 341 341 341 342 344 342 341 340 340 340 336 335 336 335 335 334 334 335 335 335 337 336 335 334 334 334 334 334 334 333 332 331 330 331 331 330 331 333 333 332 334 335 335 336
340 340 340 339 338 337 336 336 335 337 337 338 338 339 340 339 339 340 342 341 342 342 342 342 342 340 339 342 338 336 334 336 336 335 333 334 335 334 333 334 332 334 335 333 332 332 334 333 329 327 328 328 330 331 333 332 330 331 331 331 334 334
340 340 340 340 339 338 338 338 337 337 336 337 339 340 337 338 340 341 342 342 342 341 341 342 342 341 340 340 336 336 335 335 334 333 333 334 334 337 335 332 331 332 330 331 331 333 333 331 326 323 322 323 326 327 328 327 328 329 328 330 332 333
340 340 340 341 340 339 338 339 339 337 338 336 338 340 340 340 342 340 341 342 342 341 341 341 341 342 339 339 337 336 335 332 333 336 334 330 329 330 329 331 332 332 331 333 333 333 333 332 325 327 328 324 318 319 323 324 323 327 327 330 330 330
340 341 340 341 342 340 340 339 339 339 338 337 335 341 336 338 338 339 338 340 340 340 341 340 341 341 338 334 336 336 331 331 331 335 332 329 327 327 328 330 332 334 334 328 328 325 332 330 329 327 317 318 319 319 314 317 321 324 328 328 328 328
340 340 341 342 342 339 340 337 337 337 338 337 336 334 334 332 335 336 332 335 335 336 337 337 338 339 338 334 331 329 329 329 331 333 332 329 325 327 328 328 331 332 332 329 327 329 328 330 328 330 326 320 315 312 314 319 321 320 326 323 324 328
340 340 340 341 341 340 340 336 335 334 333 334 332 332 332 331 330 332 333 328 326 329 330 329 329 332 336 332 330 326 327 327 327 329 330 328 324 324 324 326 329 331 330 331 329 326 323 327 327 326 328 328 323 318 317 320 318 312 322 324 326 328
340 339 340 341 340 341 338 337 336 336 336 335 333 332 333 333 332 330 326 323 323 322 323 322 321 323 324 327 323 322 322 321 319 321 327 319 315 315 315 321 327 328 328 328 329 323 322 321 324 323 324 327 327 327 326 319 313 316 312 319 325 324
340 340 340 341 339 340 338 336 335 336 336 334 334 331 331 330 328 325 322 321 318 318 316 316 317 317 319 321 318 316 316 314 312 318 325 312 313 313 315 318 322 323 324 323 324 319 317 320 318 318 323 321 324 326 326 326 324 319 314 310 313 320
338 339 339 340 340 339 338 335 335 332 331 333 332 330 329 329 323 323 320 317 316 315 314 314 313 315 316 317 323 315 314 313 311 315 328 316 316 316 314 315 314 315 316 319 320 321 321 317 318 316 317 316 318 319 322 322 322 322 316 312 312 314
337 338 339 339 340 337 331 332 331 331 331 328 329 324 324 321 319 318 318 314 314 314 313 313 312 312 313 318 320 318 313 312 312 313 326 315 313 314 315 315 314 313 313 313 315 320 317 316 317 318 318 318 316 317 318 320 320 319 319 319 313 313
337 337 337 337 338 336 334 330 331 330 329 326 323 322 321 319 317 314 316 313 313 313 313 311 313 314 313 314 315 320 314 312 315 327 326 316 314 314 314 314 314 314 318 312 311 311 317 315 317 316 316 317 317 316 315 315 315 317 317 314 313 313
333 333 334 335 335 335 333 331 329 328 327 325 323 322 322 319 316 314 314 313 313 312 312 313 313 313 314 315 317 318 324 320 322 317 316 316 315 314 314 314 313 313 312 311 311 317 313 312 312 313 315 317 317 318 318 317 318 319 318 315 315 314
331 329 330 332 332 332 331 330 329 328 327 324 323 323 322 320 317 314 313 313 312 311 312 313 313 313 314 315 319 317 317 317 318 320 319 315 315 315 314 314 314 312 312 311 312 312 313 312 312 312 313 315 317 317 318 319 319 320 320 319 317 313
331 326 327 327 329 329 329 329 328 326 324 323 321 321 321 319 316 316 314 314 314 312 312 312 313 313 315 315 318 318 319 316 316 316 319 317 317 316 315 314 314 313 312 313 312 311 312 312 312 311 312 313 313 315 316 318 319 319 318 317 315 314
329 324 323 323 324 325 326 325 325 325 324 321 319 320 320 319 315 314 314 314 314 314 312 313 313 315 317 316 316 316 317 317 316 316 317 318 320 318 317 317 316 314 314 313 312 313 312 311 311 311 311 312 313 313 314 315 318 318 320 318 317 316
329 324 320 321 320 321 321 322 322 323 323 322 322 320 320 320 317 315 314 314 313 313 313 313 314 315 315 316 315 315 317 317 316 315 316 316 315 316 316 315 315 315 314 317 314 312 312 312 311 312 312 312 311 311 313 314 316 317 319 320 320 319
323 320 318 320 320 319 318 318 318 320 321 321 321 319 318 318 316 315 314 313 312 312 313 313 313 316 314 315 314 314 314 315 315 315 315 315 315 315 314 315 316 314 313 314 315 314 314 313 313 312 312 312 312 312 312 313 314 317 317 319 320 320
Wind_Speed
6 6 5 4 4 4 5 10 9 10 11 11 10 10 9 9 8 7 6 6 5 2 1 1 1 1 1 0 2 2 2 1 1 2 1 1 1 1 1 2 2 3 3 4 5 5 6 7 8 9 9 10 10 5 4 4 4 3 3 3 2 2
6 7 5 4 4 4 3 7 3 4 4 6 7 8 6 3 6 2 7 3 3 2 2 2 1 3 1 0 1 1 1 1 1 1 1 1 1 2 3 3 4 4 5 5 6 3 4 5 8 9 9 10 6 4 4 4 4 4 4 3 3 3
8 7 7 5 4 4 3 5 4 3 4 5 5 4 2 3 2 2 1 3 2 2 2 2 1 1 1 2 2 3 3 2 2 3 3 3 3 4 5 5 6 6 7 7 4 4 4 4 5 7 7 5 5 5 5 5 4 4 4 4 3 5
9 8 7 6 5 5 4 5 4 4 4 4 3 3 3 2 2 2 2 3 3 2 2 2 3 5 4 2 2 4 4 4 4 3 4 2 3 4 6 6 7 8 5 4 4 4 4 4 4 4 4 4 4 5 5 4 4 4 4 5 4 7
7 6 6 5 5 4 4 4 4 4 4 4 3 3 4 3 3 2 3 2 3 2 3 2 2 2 2 2 3 3 3 3 1 2 3 2 2 3 3 4 4 4 4 4 5 5 4 4 4 4 4 4 4 4 4 4 3 3 4 4 5 8
8 8 8 6 6 6 6 4 4 5 4 3 4 4 3 4 3 3 2 2 2 3 3 2 2 3 3 2 4 4 4 2 2 3 1 2 2 2 3 3 3 3 3 3 3 4 3 3 4 4 4 4 4 4 4 4 4 4 4 4 5 9
8 7 8 7 6 6 5 5 5 5 5 4 4 4 4 3 3 4 3 2 3 3 2 2 2 3 4 2 3 4 4 3 3 3 2 2 3 2 2 3 3 3 3 3 3 3 4 4 3 3 3 4 4 4 4 5 5 5 5 5 5 10
9 8 7 8 7 6 5 6 6 7 5 5 5 5 4 4 4 4 3 3 1 2 2 2 3 3 4 3 4 3 3 3 3 3 1 1 3 3 3 2 3 4 4 3 3 3 3 3 3 2 3 4 4 4 4 4 4 5 5 5 5 7
9 10 7 7 8 7 6 6 6 6 6 7 5 5 4 4 4 3 3 3 3 3 3 3 4 4 3 4 4 3 3 3 3 3 2 2 2 3 3 3 3 3 3 4 3 4 3 3 3 2 3 3 3 4 4 4 4 6 6 5 5 5
10 8 8 7 6 7 7 8 8 6 5 7 5 4 4 4 3 4 4 4 4 4 4 4 4 3 4 4 4 3 3 3 3 3 2 3 3 3 3 3 3 3 3 4 3 3 2 3 3 3 2 3 3 3 3 4 4 4 6 6 5 4
8 9 6 7 7 7 6 6 7 6 6 6 5 5 4 4 4 4 4 4 4 4 4 4 4 4 4 4 3 3 4 3 3 3 3 3 2 3 2 3 3 3 3 3 3 1 2 3 3 3 3 3 3 3 3 3 4 4 5 5 5 4
8 7 8 8 8 7 8 7 6 5 6 5 5 5 5 4 5 4 4 4 4 4 4 4 4 4 4 4 4 3 4 3 5 3 3 3 3 2 2 2 2 2 2 2 3 3 2 2 3 3 2 3 2 3 3 3 4 4 4 5 5 4
8 7 8 9 8 7 6 6 5 6 5 5 5 5 5 5 5 5 4 5 5 5 4 5 5 5 4 4 4 4 4 4 4 3 3 3 2 2 3 3 3 2 2 2 3 3 3 2 3 4 3 3 2 3 3 3 3 4 4 4 4 3
8 9 9 8 7 5 6 6 5 5 5 5 5 5 5 5 5 5 5 5 5 5 5 5 5 5 4 4 4 4 4 4 4 3 2 2 2 1 3 3 3 3 3 3 3 3 3 4 4 3 4 4 4 3 3 4 4 4 4 4 4 4
8 9 9 8 8 7 6 6 6 6 5 6 5 5 5 5 5 5 4 4 5 5 5 5 5 5 5 4 4 4 4 4 2 2 2 1 1 1 2 3 3 4 4 3 3 3 3 4 4 5 5 5 6 5 3 4 4 4 4 4 4 4
8 9 9 9 8 7 7 7 6 6 5 5 5 5 6 6 5 5 5 5 5 5 5 6 6 5 5 5 5 4 4 3 2 2 2 1 1 2 2 2 2 2 4 5 5 5 4 5 5 5 5 5 5 5 5 4 4 5 4 3 3 4
11 10 9 9 8 6 6 6 6 6 7 6 6 6 5 5 5 5 5 5 5 5 5 6 6 6 5 5 4 4 3 3 3 2 2 1 1 1 1 2 2 2 1 3 4 5 6 5 6 6 6 5 5 5 5 5 5 4 4 4 4 4
11 11 10 9 8 7 6 6 6 6 5 6 6 6 5 5 5 5 5 5 5 5 5 6 6 6 5 5 4 4 3 3 3 2 2 1 1 0 1 1 2 1 2 2 3 4 5 6 5 7 7 6 6 5 6 7 5 4 4 5 4 4
9 10 9 9 7 6 5 4 3 5 5 5 5 5 5 5 5 5 6 6 6 6 5 6 6 6 5 5 4 3 3 3 3 3 2 1 1 1 0 1 1 2 1 1 2 4 4 4 6 7 7 7 6 7 6 5 4 4 3 4 4 4
8 9 8 7 6 6 5 6 6 3 3 4 4 4 5 6 5 6 6 6 7 6 6 6 6 6 5 5 4 4 4 3 3 3 2 2 2 2 2 1 1 1 2 2 1 2 3 5 6 6 6 7 6 6 6 5 4 3 3 4 4 3
8 8 8 8 7 7 6 5 3 6 7 6 6 6 6 5 6 6 6 7 7 6 7 6 6 6 6 5 4 4 3 3 3 3 3 3 3 2 2 1 1 0 1 1 2 2 4 4 6 6 4 5 7 6 6 4 3 3 5 6 4 3
8 9 9 10 9 8 8 8 7 7 6 6 6 6 5 5 6 5 6 6 6 7 7 6 6 5 5 6 5 4 4 3 3 2 2 2 3 3 3 2 1 2 1 1 2 2 4 4 3 6 7 8 5 5 6 3 2 5 9 6 5 4
9 9 9 9 9 8 6 7 7 5 7 4 2 4 6 6 5 6 6 6 6 7 7 6 7 6 5 5 5 5 4 3 2 3 3 1 2 2 2 2 2 1 2 1 1 2 3 2 3 5 5 4 4 8 6 6 3 10 9 5 6 6
9 9 9 9 9 7 8 6 4 6 4 4 4 4 3 3 4 6 6 6 6 7 7 7 6 6 4 4 5 5 3 3 2 3 3 3 2 1 2 2 2 2 1 1 1 2 2 3 1 4 4 2 4 3 5 3 9 8 5 5 6 7
10 10 8 9 9 6 6 4 4 4 5 5 5 5 5 3 3 4 5 5 6 7 7 8 6 6 6 6 5 5 4 3 3 3 3 3 2 2 2 2 2 1 2 1 2 1 2 4 5 4 2 3 3 2 1 5 8 7 4 8 8 6
7 7 8 8 8 8 8 8 7 7 6 5 5 6 6 7 5 6 7 4 4 6 8 7 6 6 6 6 6 5 5 5 3 3 3 3 3 3 3 3 3 3 2 1 1 2 2 3 3 4 3 2 2 3 5 5 3 5 5 5 6 3
8 7 7 7 8 8 8 7 10 10 9 9 8 5 5 6 7 4 5 6 5 3 8 8 6 6 6 5 6 5 6 5 5 4 3 4 4 4 4 3 3 3 3 2 3 2 2 2 3 1 1 2 3 3 2 3 2 5 9 3 3 5
7 7 7 7 9 9 10 9 9 8 8 9 9 8 7 6 5 6 6 6 5 4 6 7 7 6 6 6 6 6 6 5 5 4 3 5 5 4 4 3 4 4 4 3 3 3 1 1 2 2 1 2 3 3 3 5 5 5 7 9 9 6
8 8 8 9 9 9 7 7 7 5 5 4 5 6 5 4 6 5 7 4 5 5 5 5 7 7 6 6 5 6 5 5 5 4 4 5 4 5 5 5 4 4 4 3 3 3 2 2 3 2 1 1 2 2 2 3 5 4 4 6 9 6
8 7 8 9 9 9 6 4 6 8 9 5 4 5 5 6 5 5 7 6 5 6 6 6 5 6 6 6 6 5 5 4 4 5 3 5 5 4 4 4 5 5 5 4 3 4 4 3 2 2 2 2 1 2 2 1 1 2 4 5 8 9
9 6 5 7 7 7 7 7 6 2 2 5 6 8 7 5 5 5 7 6 6 6 6 7 6 5 6 6 5 4 5 5 4 4 4 4 4 3 3 3 4 4 3 4 4 5 3 2 2 2 3 3 3 3 3 3 4 3 3 5 6 7
6 6 6 6 6 7 7 8 9 7 7 7 8 9 11 11 10 10 9 9 7 5 6 5 5 6 5 5 5 4 5 4 3 3 3 3 3 4 3 2 3 3 3 4 4 3 2 3 4 4 4 3 3 3 3 4 4 4 3 4 5 8
8 7 8 7 8 7 7 7 8 11 12 10 10 10 11 12 11 10 9 8 7 7 6 5 5 6 5 6 6 6 4 3 3 3 3 3 3 4 3 3 3 4 4 5 6 5 4 5 5 5 6 4 4 4 5 5 4 4 4 5 5 7
9 7 6 6 7 8 8 8 7 8 8 8 8 9 9 10 9 9 8 8 7 5 7 8 7 7 7 6 4 4 4 4 4 3 3 4 4 4 4 4 4 4 6 6 5 5 5 6 5 6 4 5 5 5 5 5 5 4 4 3 4 5
9 7 7 7 6 8 7 7 4 3 4 6 8 8 8 8 9 9 9 11 11 10 9 7 7 6 5 5 5 4 4 4 4 5 4 4 4 4 4 3 4 5 5 5 5 5 5 6 6 7 6 6 6 5 6 6 4 6 4 5 5 4
10 8 7 6 7 7 6 5 2 6 7 6 6 7 8 7 8 7 7 8 10 9 8 7 6 5 5 6 6 6 5 6 5 5 5 5 5 4 4 4 5 4 6 4 5 6 6 5 6 7 7 6 4 6 6 6 5 5 5 5 5 5
6 8 6 5 4 1 3 4 6 6 7 8 8 9 9 9 6 3 4 5 6 7 7 7 7 6 6 6 6 6 6 6 5 5 5 5 5 5 5 5 5 5 6 6 5 6 6 6 6 6 5 7 6 6 6 5 5 5 6 4 5 4
Wind_Direction
141 135 142 140 142 135 162 160 161 162 161 161 162 163 163 166 168 173 173 177 171 108 77 72 77 46 146 96 146 137 139 120 67 76 47 357 27 4 357 5 351 348 350 343 334 340 337 325 321 322 324 326 329 333 317 315 309 298 293 281 274 256
155 155 145 143 146 150 174 156 150 164 154 164 167 169 166 160 169 167 175 169 103 124 79 86 93 155 44 296 340 213 214 238 235 277 278 298 305 332 332 338 338 338 336 333 333 0 328 323 323 326 329 331 331 309 308 300 293 292 287 281 264 251
166 161 155 155 156 163 150 135 151 143 152 161 169 162 137 164 96 141 76 109 126 100 122 91 118 194 145 215 249 261 245 252 265 274 292 308 316 326 331 330 333 332 328 329 349 334 326 319 319 327 330 329 307 311 306 298 290 283 283 281 270 253
171 168 165 163 162 167 149 148 150 145 148 142 146 130 139 127 126 127 107 107 119 140 135 126 220 210 208 193 239 254 245 245 253 270 270 316 338 331 345 353 349 338 350 346 331 327 327 320 315 309 310 311 306 305 309 301 291 291 287 283 274 268
171 170 164 164 175 169 146 148 146 144 140 145 137 118 143 134 137 146 125 123 128 149 141 162 265 311 10 197 201 253 294 324 353 344 332 39 16 340 355 333 339 340 325 332 326 314 326 314 310 311 308 303 297 297 301 298 294 286 285 281 277 277
172 173 170 169 178 178 165 161 157 157 145 135 140 137 142 155 148 152 155 150 152 141 148 166 240 276 287 202 212 230 251 265 279 252 352 336 345 352 316 320 320 311 306 307 295 295 293 290 297 306 300 296 298 307 313 318 323 309 295 290 286 279
180 178 176 174 169 183 168 173 165 162 154 157 149 149 161 166 169 164 167 180 173 171 176 183 218 251 261 226 223 227 236 218 217 237 278 262 292 297 296 302 303 292 291 291 285 274 271 266 267 290 296 298 310 316 321 322 331 329 321 312 302 293
185 185 182 181 174 183 170 170 176 181 175 180 164 173 169 176 174 172 173 178 189 165 187 231 241 228 240 223 238 227 218 221 211 236 276 218 268 290 289 276 273 286 292 293 290 287 279 282 290 268 305 308 315 326 326 323 321 317 315 312 306 302
180 188 185 181 185 189 177 174 179 181 175 192 179 186 174 159 173 181 181 170 188 184 194 215 229 235 210 226 239 231 212 221 210 230 206 262 235 275 287 284 278 278 288 285 285 285 286 288 293 303 307 312 321 324 326 324 320 319 317 318 316 301
181 180 182 180 187 193 189 181 186 187 174 191 183 172 167 171 171 175 195 182 192 189 200 210 227 218 202 240 237 238 237 238 233 230 199 242 228 232 255 277 273 270 270 272 269 270 286 298 305 303 300 311 319 321 313 312 314 313 311 318 318 310
182 184 175 188 187 192 189 194 190 182 177 188 173 160 174 181 175 189 201 191 192 205 203 205 218 225 220 240 240 245 251 263 265 238 215 239 216 224 233 239 256 268 279 286 283 281 298 298 300 303 310 315 310 312 308 301 303 301 302 308 317 314
186 184 179 192 191 190 194 198 194 183 186 183 164 169 177 180 197 201 195 195 196 199 212 204 211 222 223 229 236 235 260 264 262 258 225 230 232 229 233 249 269 285 280 300 308 312 284 285 305 301 305 297 295 294 289 292 288 288 285 288 298 304
182 186 184 189 191 189 182 185 185 194 192 180 174 168 181 192 197 201 195 197 199 197 201 200 205 210 212 213 218 225 239 240 255 264 259 257 273 330 342 342 337 331 299 290 325 323 325 311 316 318 314 305 297 286 284 281 275 277 276 278 285 287
181 186 190 192 190 182 185 184 187 187 194 184 182 175 192 194 198 201 199 198 198 199 200 200 189 201 199 198 203 211 226 248 245 249 243 221 257 339 326 332 324 345 334 352 335 324 336 332 326 313 312 312 302 285 282 285 281 272 274 279 278 286
185 188 190 189 191 193 186 182 182 185 191 191 187 187 189 185 192 202 195 203 197 196 199 193 188 184 195 190 195 209 222 235 237 217 236 251 222 332 12 323 338 341 327 341 343 327 348 326 322 325 325 325 316 316 301 289 291 288 276 275 280 284
185 190 192 191 193 192 190 187 184 186 186 189 191 195 192 189 191 190 190 201 197 197 190 187 183 178 182 190 192 203 219 225 216 190 211 245 228 285 346 346 339 350 338 330 348 335 347 330 325 319 325 322 312 313 312 308 297 294 293 284 278 283
186 189 192 193 192 191 185 187 186 188 188 185 193 202 199 188 183 182 187 196 195 196 187 181 179 177 178 185 192 193 213 222 206 185 189 189 226 288 350 322 348 19 37 314 336 330 330 331 321 324 327 315 310 309 305 306 300 298 306 289 282 271
185 185 188 191 191 189 191 192 189 190 179 188 201 203 197 183 190 185 177 190 188 190 177 178 174 176 181 182 182 178 194 195 175 158 157 159 210 242 350 6 329 356 347 332 333 333 322 323 325 326 322 314 309 305 299 298 300 308 311 304 293 282
183 183 186 185 186 186 185 195 194 182 187 195 203 204 186 191 194 175 177 179 176 182 172 173 171 168 170 167 157 170 163 173 161 152 147 158 178 214 233 113 257 298 344 304 308 316 313 318 320 318 313 307 311 303 290 282 293 304 306 298 291 290
184 181 177 176 170 173 172 185 189 185 197 205 200 194 196 198 180 180 177 167 170 169 165 167 167 165 166 161 169 179 172 131 148 140 144 156 177 198 210 235 243 259 323 331 298 319 325 329 312 308 303 308 301 299 294 300 307 308 306 299 300 297
183 175 169 168 172 170 176 185 193 192 197 192 190 193 195 187 184 184 170 166 161 161 160 161 161 159 169 170 169 149 128 144 158 152 148 181 194 184 201 167 122 10 278 356 328 16 344 329 319 324 297 297 309 311 292 322 323 326 338 335 326 318
171 177 180 177 176 180 179 181 175 188 179 179 183 178 188 193 189 176 162 158 155 155 154 155 154 165 163 159 148 150 149 155 159 152 149 145 148 135 124 118 114 50 49 31 343 0 338 338 14 355 330 329 318 309 303 1 30 353 349 340 339 337
177 178 184 181 173 182 183 180 176 177 179 172 198 182 180 179 169 159 158 154 149 147 147 148 156 160 163 152 152 151 161 152 162 155 135 122 100 105 121 119 130 91 342 131 7 300 335 31 339 324 293 306 342 345 343 353 328 341 338 331 336 353
183 181 180 185 184 181 174 174 175 162 158 144 162 123 89 108 138 132 139 144 143 145 144 141 145 144 141 124 143 152 138 154 151 168 156 147 128 110 107 107 117 142 186 339 43 294 341 7 301 344 6 359 305 341 326 349 328 312 309 324 346 341
182 184 183 185 179 162 139 119 106 93 101 89 67 94 110 81 129 138 123 149 157 148 146 139 143 145 144 145 133 133 142 137 137 165 144 136 140 134 107 114 132 150 200 149 287 71 336 30 7 358 330 333 342 351 283 310 337 302 359 350 334 335
180 183 182 184 170 164 168 158 151 154 165 171 157 155 167 160 159 163 173 153 142 169 138 131 141 145 149 139 147 146 138 133 143 159 155 124 130 124 123 123 140 148 185 213 265 4 304 342 351 330 317 230 208 286 314 332 330 308 332 287 266 313
181 183 181 179 172 172 172 178 180 184 183 185 181 191 167 166 167 171 136 153 159 195 137 135 139 138 141 140 135 138 140 137 132 143 147 132 134 147 140 134 137 143 151 133 136 174 224 282 324 14 46 333 305 308 299 321 322 312 312 327 337 331
181 180 184 179 180 186 183 188 193 194 187 187 187 179 173 168 154 152 151 156 157 168 134 135 137 139 142 141 136 132 128 128 124 143 151 151 148 150 113 112 123 138 136 137 150 147 199 199 136 269 346 324 309 307 295 278 275 308 300 298 308 309
182 183 188 189 188 197 181 192 192 199 229 218 183 158 151 135 145 150 148 157 154 161 135 135 140 145 147 144 144 143 142 143 142 162 152 136 125 135 137 142 146 148 160 155 154 164 164 184 173 224 26 348 330 301 289 276 280 266 280 305 298 308
191 192 192 189 192 185 139 204 213 210 198 184 140 108 126 142 145 155 157 171 168 161 149 140 143 145 147 150 141 145 151 148 156 161 143 146 141 140 150 161 175 172 158 142 176 184 190 174 167 170 194 198 211 286 308 309 266 288 281 257 284 303
200 192 187 195 191 194 165 173 238 242 236 191 157 140 137 141 143 160 171 177 176 177 165 164 156 158 150 145 142 158 152 183 158 144 132 146 168 183 183 183 175 167 167 170 180 197 181 167 164 174 200 203 207 205 213 226 248 263 260 282 298 295
196 192 191 193 188 189 180 177 169 198 203 209 175 163 166 169 180 177 177 179 186 172 176 163 161 157 150 146 154 157 170 150 136 139 180 175 186 194 188 157 166 179 209 214 223 217 192 215 213 199 211 192 214 209 217 221 235 229 224 265 274 288
202 194 196 193 193 191 187 191 185 183 185 188 186 176 176 181 181 177 176 174 166 179 175 162 183 175 175 172 171 166 163 161 182 193 198 176 213 203 197 190 196 212 222 237 235 228 236 239 235 234 247 209 196 191 216 225 222 227 243 254 263 285
207 193 195 191 197 194 197 197 190 185 178 174 180 182 189 182 182 183 174 165 174 191 192 189 181 189 182 173 167 189 184 194 199 195 197 206 216 218 199 203 214 219 230 236 233 230 230 241 238 238 225 244 226 211 228 227 218 209 230 233 254 259
199 195 190 196 194 198 198 197 192 196 173 171 175 180 190 184 181 184 173 176 179 183 191 189 182 191 168 161 185 190 199 196 197 205 208 215 223 221 212 213 221 228 244 240 237 234 240 234 245 244 237 225 241 232 235 233 196 225 217 222 230 246
198 187 188 192 199 196 197 168 185 189 174 187 187 187 192 198 189 185 179 183 184 185 189 174 182 169 180 169 185 195 198 206 203 203 207 212 218 220 212 206 231 230 243 233 233 240 246 245 250 251 250 250 230 246 241 240 219 230 216 221 224 240
32 19 348 339 328 342 185 175 190 192 187 187 193 194 199 205 184 153 191 202 191 190 172 172 177 183 173 188 192 192 194 206 205 206 207 212 210 215 206 209 223 226 235 238 225 240 242 235 242 247 247 246 239 251 255 243 242 230 231 225 224 225